When you browse on this site, cookies collect data to enhance your experience and personalize the content and advertising you see.
Visit our Privacy Policy to learn more. By continuing to use the site, you agree to this use of cookies and data.
EN

Hourly Weather Golabki

Today, 19 September, Saturday

Time Temperature Precipitation Wind Pressure Humidity
00:00 +10°C° 0 mm 1 mps 755 mmHg 74%
01:00 +10°C° 0 mm 1 mps 755 mmHg 75%
02:00 +10°C° 0 mm 1 mps 755 mmHg 75%
03:00 +9°C° 0 mm 1 mps 755 mmHg 75%
04:00 +9°C° 0 mm 1 mps 755 mmHg 74%
05:00 +10°C° 0 mm 1 mps 755 mmHg 71%
06:00 +11°C° 0 mm 1 mps 755 mmHg 67%
07:00 +11°C° 0 mm 1 mps 755 mmHg 64%
08:00 +13°C° 0 mm 1 mps 755 mmHg 56%
09:00 +15°C° 0 mm 2 mps 755 mmHg 49%
10:00 +17°C° 0 mm 2 mps 755 mmHg 41%
11:00 +18°C° 0 mm 2 mps 754 mmHg 38%
12:00 +19°C° 0 mm 2 mps 754 mmHg 36%
13:00 +20°C° 0 mm 2 mps 754 mmHg 33%
14:00 +19°C° 0 mm 2 mps 754 mmHg 37%
15:00 +19°C° 0 mm 2 mps 753 mmHg 40%
16:00 +20°C° 0 mm 1 mps 753 mmHg 43%
17:00 +18°C° 0 mm 1 mps 753 mmHg 46%
18:00 +15°C° 0 mm 1 mps 753 mmHg 49%
19:00 +13°C° 0 mm 1 mps 753 mmHg 52%
20:00 +13°C° 0 mm 1 mps 753 mmHg 54%
21:00 +12°C° 0 mm 1 mps 753 mmHg 57%
22:00 +12°C° 0 mm 1 mps 753 mmHg 59%
23:00 +11°C° 0 mm 1 mps 753 mmHg 60%

Tomorrow, 20 September, Sunday

Time Temperature Precipitation Wind Pressure Humidity
00:00 +11°C° 0 mm 1 mps 753 mmHg 61%
01:00 +11°C° 0 mm 1 mps 753 mmHg 62%
02:00 +10°C° 0 mm 1 mps 753 mmHg 63%
03:00 +10°C° 0 mm 1 mps 752 mmHg 64%
04:00 +10°C° 0 mm 1 mps 752 mmHg 66%
05:00 +10°C° 0 mm 1 mps 752 mmHg 65%
06:00 +11°C° 0 mm 1 mps 753 mmHg 64%
07:00 +12°C° 0 mm 1 mps 753 mmHg 63%
08:00 +13°C° 0 mm 2 mps 753 mmHg 58%
09:00 +15°C° 0 mm 2 mps 753 mmHg 52%
10:00 +17°C° 0 mm 2 mps 753 mmHg 47%
11:00 +18°C° 0 mm 3 mps 753 mmHg 44%
12:00 +19°C° 0 mm 3 mps 752 mmHg 41%
13:00 +20°C° 0 mm 3 mps 752 mmHg 37%
14:00 +19°C° 0 mm 2 mps 752 mmHg 41%
15:00 +19°C° 0 mm 2 mps 751 mmHg 45%
16:00 +18°C° 0 mm 2 mps 751 mmHg 48%
17:00 +17°C° 0 mm 2 mps 751 mmHg 51%
18:00 +16°C° 0 mm 2 mps 751 mmHg 54%
19:00 +14°C° 0 mm 2 mps 751 mmHg 56%
20:00 +14°C° 0 mm 2 mps 751 mmHg 59%
21:00 +13°C° 0 mm 2 mps 751 mmHg 61%
22:00 +13°C° 0 mm 2 mps 751 mmHg 63%
23:00 +13°C° 0 mm 2 mps 751 mmHg 65%

Day after tomorrow, 21 September, Monday

Time Temperature Precipitation Wind Pressure Humidity
00:00 +12°C° 0 mm 2 mps 751 mmHg 67%
01:00 +11°C° 0 mm 3 mps 751 mmHg 70%
02:00 +10°C° 0 mm 3 mps 751 mmHg 71%
03:00 +10°C° 0 mm 2 mps 750 mmHg 72%
04:00 +10°C° 0 mm 2 mps 750 mmHg 73%
05:00 +12°C° 0 mm 2 mps 750 mmHg 70%
06:00 +12°C° 0 mm 2 mps 750 mmHg 68%
07:00 +13°C° 0 mm 2 mps 750 mmHg 65%
08:00 +15°C° 0 mm 2 mps 750 mmHg 59%
09:00 +17°C° 0 mm 2 mps 750 mmHg 53%
10:00 +19°C° 0 mm 2 mps 750 mmHg 47%
11:00 +20°C° 0 mm 2 mps 750 mmHg 46%
12:00 +23°C° 0 mm 2 mps 750 mmHg 44%
13:00 +24°C° 0 mm 2 mps 750 mmHg 42%
14:00 +24°C° 0 mm 2 mps 749 mmHg 45%
15:00 +23°C° 0 mm 1 mps 749 mmHg 47%
16:00 +23°C° 0 mm 1 mps 749 mmHg 49%
17:00 +21°C° 0 mm 1 mps 749 mmHg 54%
18:00 +19°C° 0 mm 1 mps 749 mmHg 58%
19:00 +18°C° 0 mm 1 mps 749 mmHg 62%
20:00 +16°C° 0 mm 1 mps 749 mmHg 64%
21:00 +16°C° 0 mm 1 mps 749 mmHg 65%
22:00 +15°C° 0 mm 1 mps 749 mmHg 66%
23:00 +15°C° 0 mm 2 mps 749 mmHg 67%

22 September, Tuesday

Time Temperature Precipitation Wind Pressure Humidity
00:00 +14°C° 0 mm 2 mps 748 mmHg 68%
01:00 +14°C° 0 mm 2 mps 748 mmHg 69%
02:00 +14°C° 0 mm 2 mps 748 mmHg 70%
03:00 +14°C° 0 mm 2 mps 748 mmHg 71%
04:00 +13°C° 0 mm 2 mps 748 mmHg 72%
05:00 +14°C° 0 mm 2 mps 748 mmHg 69%
06:00 +15°C° 0 mm 2 mps 748 mmHg 67%
07:00 +16°C° 0 mm 2 mps 748 mmHg 65%
08:00 +19°C° 0 mm 2 mps 748 mmHg 58%
09:00 +21°C° 0 mm 3 mps 748 mmHg 52%
10:00 +24°C° 0 mm 3 mps 748 mmHg 45%
11:00 +25°C° 0 mm 3 mps 748 mmHg 43%
12:00 +26°C° 0 mm 3 mps 747 mmHg 41%
13:00 +27°C° 0 mm 4 mps 747 mmHg 38%
14:00 +26°C° 0 mm 3 mps 746 mmHg 41%
15:00 +26°C° 0 mm 3 mps 746 mmHg 45%
16:00 +25°C° 0 mm 3 mps 746 mmHg 48%
17:00 +22°C° 0 mm 3 mps 745 mmHg 52%
18:00 +21°C° 0 mm 3 mps 745 mmHg 56%
19:00 +19°C° 0 mm 3 mps 745 mmHg 59%
20:00 +18°C° 0 mm 3 mps 745 mmHg 61%
21:00 +17°C° 0 mm 3 mps 745 mmHg 63%
22:00 +17°C° 0 mm 3 mps 745 mmHg 65%
23:00 +16°C° 0 mm 3 mps 744 mmHg 65%

23 September, Wednesday

Time Temperature Precipitation Wind Pressure Humidity
00:00 +16°C° 0 mm 3 mps 744 mmHg 66%
01:00 +16°C° 0 mm 3 mps 744 mmHg 67%
02:00 +14°C° 0 mm 3 mps 743 mmHg 68%
03:00 +14°C° 0 mm 3 mps 743 mmHg 68%
04:00 +13°C° 0 mm 3 mps 743 mmHg 69%
05:00 +14°C° 0 mm 3 mps 743 mmHg 67%
06:00 +16°C° 0 mm 3 mps 743 mmHg 66%
07:00 +17°C° 0 mm 3 mps 742 mmHg 64%
08:00 +19°C° 0 mm 3 mps 742 mmHg 59%
09:00 +21°C° 0 mm 3 mps 742 mmHg 53%
10:00 +24°C° 0 mm 3 mps 742 mmHg 47%
11:00 +25°C° 0 mm 4 mps 742 mmHg 45%
12:00 +27°C° 0 mm 4 mps 741 mmHg 42%
13:00 +28°C° 0 mm 5 mps 741 mmHg 39%
14:00 +27°C° 0 mm 4 mps 741 mmHg 42%
15:00 +26°C° 0 mm 4 mps 740 mmHg 45%
16:00 +26°C° 0 mm 3 mps 740 mmHg 48%
17:00 +23°C° 0 mm 4 mps 740 mmHg 50%
18:00 +22°C° 0 mm 4 mps 740 mmHg 53%
19:00 +20°C° 0 mm 4 mps 740 mmHg 55%
20:00 +19°C° 0 mm 4 mps 740 mmHg 57%
21:00 +19°C° 0 mm 3 mps 740 mmHg 59%
22:00 +18°C° 0 mm 3 mps 741 mmHg 60%
23:00 +17°C° 0 mm 3 mps 740 mmHg 62%

24 September, Thursday

Time Temperature Precipitation Wind Pressure Humidity
00:00 +17°C° 0 mm 3 mps 740 mmHg 64%
01:00 +17°C° 0 mm 3 mps 740 mmHg 66%
02:00 +16°C° 0 mm 2 mps 740 mmHg 67%
03:00 +16°C° 0 mm 2 mps 740 mmHg 69%
04:00 +16°C° 0 mm 2 mps 740 mmHg 70%
05:00 +16°C° 0.2 mm 2 mps 740 mmHg 71%
06:00 +17°C° 0.2 mm 2 mps 740 mmHg 72%
07:00 +18°C° 0.2 mm 2 mps 741 mmHg 73%
08:00 +19°C° 0.4 mm 2 mps 741 mmHg 70%
09:00 +20°C° 0.4 mm 2 mps 741 mmHg 66%
10:00 +23°C° 0.4 mm 2 mps 741 mmHg 63%
11:00 +24°C° 0 mm 2 mps 741 mmHg 59%
12:00 +25°C° 0 mm 2 mps 741 mmHg 54%
13:00 +26°C° 0 mm 2 mps 741 mmHg 50%
14:00 +25°C° 0 mm 2 mps 741 mmHg 52%
15:00 +25°C° 0 mm 2 mps 741 mmHg 55%
16:00 +24°C° 0 mm 2 mps 741 mmHg 57%
17:00 +23°C° 0.1 mm 2 mps 741 mmHg 62%
18:00 +21°C° 0.1 mm 2 mps 741 mmHg 66%
19:00 +19°C° 0.1 mm 2 mps 741 mmHg 71%
20:00 +19°C° 0.1 mm 3 mps 741 mmHg 74%
21:00 +18°C° 0.1 mm 3 mps 741 mmHg 78%
22:00 +18°C° 0.1 mm 3 mps 741 mmHg 81%
23:00 +17°C° 0 mm 3 mps 741 mmHg 84%
Show more